Location: Olomouc
(49.5830°N, 17.2500°E)
Time: 10:57:33
(UTC+02:00)

ISS - Visible Passes

Search period start: 18 June 2024 00:00
Search period end: 28 June 2024 00:00
Orbit: 411 x 425 km, 51.6° (Epoch: 17 June)

Date Brightness Start Highest point End Pass type
(mag) Time Alt. Az. Time Alt. Az. Time Alt. Az.
23 Jun -1.1 03:50:45 10° SSE 03:51:29 11° SE 03:52:11 10° ESE visible
25 Jun -2.1 03:48:56 10° SSW 03:51:38 23° SE 03:54:22 10° E visible
26 Jun -1.6 03:02:14 12° SSE 03:03:41 16° SE 03:05:47 10° E visible
27 Jun -1.2 02:15:44 10° SE 02:15:46 10° SE 02:15:54 10° SE visible
27 Jun -3.3 03:48:39 10° SW 03:51:52 47° SSE 03:55:06 10° ENE visible
